Tracking 32963 objects as of 21-Jan-2026
HD Live streaming from Space Station
objects crossing your sky now

LEMUR 2 JOHNNYTRUONG

Track LEMUR 2 JOHNNYTRUONG now!
10-day predictions
LEMUR 2 JOHNNYTRUONG is classified as:


NORAD ID: 59146
Int'l Code: 2024-043BA
Perigee: 422.1 km
Apogee: 429.2 km
Inclination: 97.5 °
Period: 92.9 minutes
Semi major axis: 6796 km
RCS: Unknown
Launch date: March 4, 2024
Source: United States (US)
Launch site: AIR FORCE WESTERN TEST RANGE (AFWTR)
Your satellite tracking list
Your tracking list is empty




NASA's NSSDC Master Catalog

Two Line Element Set (TLE):
1 59146U 24043BA  26020.91758844  .00052698  00000-0  95688-3 0  9993
2 59146  97.5226 164.8985 0005172   1.9094 358.2176 15.49393193105158
Source of the keplerian elements: AFSPC